[Iaude] MPEC L129: 2024 LD4 [a=1.47,e=0.27,i=9.3,H=24.7]
    mpec at cfa.harvard.edu 
    mpec at cfa.harvard.edu
       
    Thu Jun 13 01:37:45 EDT 2024
    
    
  
M.P.E.C. 2024-L129                                Issued 2024 June 13, 05:36 UT
     The Minor Planet Electronic Circulars contain information on unusual
         minor planets, routine data on comets and natural satellites,
         and occasional editorial announcements.  They are published
    on behalf of Division F of the International Astronomical Union by the
          Minor Planet Center, Smithsonian Astrophysical Observatory,
                          Cambridge, MA 02138, U.S.A.
			  
             Prepared using the Tamkin Foundation Computer Network
                              MPC at CFA.HARVARD.EDU
            URL https://www.minorplanetcenter.net/    ISSN 1523-6714
                                    2024 LD4                                    
Observations:
     K24L04D 1C2024 06 01.26159 15 33 15.56 -21 43 43.9                VEL129G96
     K24L04D 1C2024 06 01.27326 15 33 15.77 -21 42 58.1          21.0 GVEL129G96
     K24L04D 1C2024 06 08.29488 15 39 30.74 -12 55 17.1                VEL129G96
     K24L04D 1C2024 06 08.30050 15 39 30.98 -12 54 48.4                VEL129G96
     K24L04D* C2024 06 12.33874715 44 43.110-07 05 38.67         21.20wXEL129F51
     K24L04D  C2024 06 12.35125015 44 43.795-07 04 32.53         21.27wXEL129F51
     K24L04D  C2024 06 12.36371815 44 44.527-07 03 24.85         21.38wXEL129F51
     K24L04D  C2024 06 12.48662415 44 51.872-06 52 21.35         21.02GVEL129F51
     K24L04D  C2024 06 12.48726515 44 51.891-06 52 17.82         21.42GVEL129F51
     K24L04D KC2024 06 13.15738315 45 54.89 -05 52 15.4          21.5 GVEL129H21
     K24L04D KC2024 06 13.16027415 45 55.07 -05 51 59.8          21.6 GVEL129H21
     K24L04D KC2024 06 13.16316515 45 55.25 -05 51 44.0          21.4 GVEL129H21
     K24L04D KC2024 06 13.16605515 45 55.45 -05 51 28.5          21.4 GVEL129H21
     K24L04D KC2024 06 13.18943715 45 58.644-05 49 14.23         21.23GVEL129I52
     K24L04D KC2024 06 13.19253615 45 58.806-05 48 57.06         21.80GVEL129I52
     K24L04D KC2024 06 13.19874315 45 59.198-05 48 25.60         20.46GVEL129I52
Observer details:
F51 Pan-STARRS 1, Haleakala.  Observers J. Herman, T. Lowe, P. Minguez, A.
    Schultz, I. Smith.  Measurers K. Chambers, T. de Boer, J. Fairlamb, H.
    Gao, M. Huber, C.-C. Lin, E. Magnier, Y. Ramanjooloo, R. Wainscoat, R.
    Weryk.  1.8-m Ritchey-Chretien + CCD.
G96 Mt. Lemmon Survey.  Observers J. B. Fazekas, J. K. Hogan.  Measurers B.
    Gray, D. Rankin, F. C. Shelly.  1.5-m reflector + 10K CCD.
H21 Astronomical Research Observatory, Westfield.  Observer R. Holmes.
    Measurers T. Linder, R. Holmes, L. Horn.  1.3-m f/4.0 astrograph + CCD.
I52 Steward Observatory, Mt. Lemmon Station.  Observer J. K. Hogan.  Measurers
    T. Beuden, V. F. Carvajal, D. Fay, J. B. Fazekas, D. C. Fuls, A. R. Gibbs,
    A. D. Grauer, H. Groeller, J. K. Hogan, R. A. Kowalski, S. M. Larson, G.
    J. Leonard, D. Rankin, R. L. Seaman, F. C. Shelly, K. W. Wierzchos.  1.0-m
    prime focus + CCD.
Orbital elements:
2024 LD4                                                 Earth MOID = 0.0977 AU
Epoch 2024 Mar. 31.0 TT = JDT 2460400.5                 MPC                     
M 298.85353              (2000.0)            P               Q                  
n   0.55240494     Peri.   44.27211     +0.41794594     +0.89559716             
a   1.4710621      Node   250.97845     -0.87185031     +0.34826275             
e   0.2696032      Incl.    9.27692     -0.25533944     +0.27680100             
P   1.78           H   24.70          G   0.15           U   7                  
Residuals in seconds of arc
240601 G96  0.2-  0.7+    240612 F51  0.1-  0.1+    240613 H21  0.1+  0.3-
240601 G96  0.1+  0.3-    240612 F51  0.0   0.0     240613 I52  0.3+  0.2-
240608 G96  0.1+  0.4-    240612 F51  0.4-  0.1+    240613 I52  0.3-  0.2+
240608 G96  0.1+  0.2+    240613 H21  0.2+  0.0     240613 I52 (0.4-  2.0-)
240612 F51  0.1-  0.4+    240613 H21  0.1+  0.2-
240612 F51  0.5-  0.6-    240613 H21  0.1-  0.1-
Ephemeris:
2024 LD4                 a,e,i = 1.47, 0.27, 9                   q = 1.0745
Date    TT    R. A. (2000) Decl.     Delta      r    Elong.  Phase     V
2024 05 14    15 27 01.5 -35 31 27   0.2044  1.2077   163.1    14.1    22.5
...
2024 05 29    15 31 18.4 -25 07 36   0.1485  1.1589   167.4    11.0    21.6
...
2024 06 06    15 37 08.0 -15 59 14   0.1283  1.1362   160.1    17.7    21.4
...
2024 06 12    15 44 13.4 -07 35 24   0.1183  1.1212   151.9    25.2    21.5
2024 06 13    15 45 40.3 -06 05 40   0.1170  1.1188   150.4    26.6    21.5
2024 06 14    15 47 12.0 -04 34 46   0.1159  1.1165   149.0    28.0    21.5
...
2024 06 20    15 58 04.6 +04 44 02   0.1117  1.1040   139.9    36.3    21.6
...
2024 06 28    16 16 59.4 +16 44 04   0.1124  1.0904   128.7    46.7    21.9
...
2024 07 13    17 04 09.7 +33 36 08   0.1276  1.0759   114.6    59.2    22.5
A. U. Tomatic                (C) Copyright 2024 MPC           M.P.E.C. 2024-L129
    
    
More information about the Iaude
mailing list